Location: *
(49.3500°N, 12.6000°E)
Time: 21:01:58
(UTC+00:00)

Cosmos 1725 Rocket - Pass Details

Date: 18 October 2019
Orbit: 963 x 990 km, 82.9° (Epoch: 20 November)

Event Time Altitude Azimuth Distance (km) Brightness Sun altitude
Rises 18:09:16 0° 355° (N) 3,688 7.2 -19.4°
Reaches altitude 10° 18:12:00 10° 3° (N) 2,741 6.4 -19.9°
Maximum altitude 18:17:47 37° 70° (ENE) 1,477 4.5 -20.8°
Enters shadow 18:18:22 37° 83° (E) 1,495 4.5 -20.9°
